DW7205 Weather Reports


time (UTC)temp
C
wind
direction
speed
KPH
gust
KPH
rain 1hr
cm
rain 24hr
cm
rain mn
cm
humidity
%
barometer
mb
20260504201555 18 312 9.7 27.4 0.00 0.00 0.00 38 1004.3
20260504200039 18 280 4.8 27.4 0.00 0.00 0.00 40 1004.2
20260504194535 18 206 6.4 24.1 0.00 0.00 0.00 42 1004.5
20260504193033 17 330 8.0 24.1 0.00 0.00 0.00 44 1004.7
20260504191532 18 275 6.4 17.7 0.00 0.00 0.00 44 1004.6
20260504190029 17 294 9.7 19.3 0.00 0.00 0.00 45 1004.9
20260504184528 17 205 16.1 35.4 0.00 0.00 0.00 45 1005.1
20260504183023 16 234 6.4 24.1 0.00 0.00 0.00 49 1005.0
20260504181527 15 182 8.0 25.7 0.00 0.00 0.00 51 1005.3
20260504180019 15 302 8.0 19.3 0.00 0.00 0.00 54 1005.5
20260504174520 15 261 8.0 22.5 0.00 0.00 0.00 52 1005.6
20260504173019 15 304 8.0 17.7 0.00 0.00 0.00 49 1005.7
20260504171518 16 306 6.4 20.9 0.00 0.00 0.00 50 1005.5
20260504140110 13 249 3.2 25.7 0.00 0.00 0.00 59 1006.3
20260504081503 2 117 1.6 8.0 0.00 0.00 0.00 79 1008.5
20260504044537 0 266 1.6 4.8 0.00 0.03 0.00 85 1008.0
20260504043035 0 259 1.6 4.8 0.00 0.03 0.00 84 1007.9
20260504041532 0 242 0.0 3.2 0.00 0.03 0.00 83 1007.8
20260504040028 1 242 1.6 4.8 0.00 0.03 0.00 80 1007.7
20260504034532 1 224 1.6 3.2 0.00 0.10 0.03 77 1007.6
20260504033034 2 223 0.0 3.2 0.00 0.10 0.03 73 1007.6
20260504031518 3 161 0.0 3.2 0.00 0.10 0.03 67 1007.6
20260504030018 5 138 0.0 6.4 0.00 0.10 0.03 63 1007.5
20260504024538 5 163 1.6 8.0 0.00 0.25 0.03 61 1007.5
20260504023017 4 283 1.6 6.4 0.00 0.25 0.03 63 1007.6
20260504021517 5 283 1.6 4.8 0.00 0.25 0.03 61 1007.7
20260504020016 5 283 0.0 4.8 0.00 0.25 0.03 60 1007.6
20260504014516 6 147 1.6 9.7 0.00 0.25 0.03 58 1007.6
20260504013017 6 271 1.6 6.4 0.00 0.25 0.03 57 1007.5
20260504011515 6 208 3.2 19.3 0.00 0.25 0.03 56 1007.5
20260504010015 6 246 3.2 16.1 0.00 0.25 0.03 55 1007.3
20260504004532 6 274 8.0 12.9 0.00 0.25 0.03 56 1007.1
20260504003013 6 250 1.6 8.0 0.00 0.25 0.03 57 1006.9
20260504001514 6 233 1.6 6.4 0.00 0.25 0.03 58 1006.7
20260504000013 6 273 3.2 8.0 0.00 0.25 0.03 58 1006.6
20260503234512 6 306 0.0 8.0 0.00 0.25 0.03 56 1006.4
20260503233012 7 275 3.2 17.7 0.00 0.25 0.03 54 1006.3
20260503231512 7 289 1.6 17.7 0.00 0.25 0.03 54 1006.3
20260503230016 7 316 4.8 30.6 0.00 0.25 0.03 54 1006.3
20260503224511 7 287 1.6 9.7 0.00 0.25 0.03 52 1006.3
20260503223010 8 339 4.8 16.1 0.00 0.25 0.03 52 1006.0
20260503221510 7 318 3.2 16.1 0.00 0.25 0.03 51 1005.9
20260503220010 8 336 6.4 17.7 0.00 0.25 0.03 50 1005.7
20260503214508 8 325 6.4 17.7 0.00 0.25 0.03 51 1005.7
20260503213013 7 305 8.0 20.9 0.00 0.25 0.03 53 1005.8
20260503211508 7 313 9.7 17.7 0.00 0.25 0.03 52 1005.7
20260503210008 8 355 9.7 22.5 0.00 0.25 0.03 48 1005.6
20260503204507 8 307 8.0 19.3 0.00 0.25 0.03 48 1005.6
20260503203006 8 298 8.0 27.4 0.00 0.25 0.03 48 1005.4